Weather History for Vicksburg, MS

Change the Weather History Date:

Sunday, December 22, 2013

  Actual Average Record
Temperature  
Mean Temperature 52 °F 47 °F  
Max Temperature 62 °F 57 °F 78 °F (1967)
Min Temperature 41 °F 36 °F 7 °F (1989)
Degree Days  
Heating Degree Days 13 18  
Month to date heating degree days 381 364  
Since 1 July heating degree days 911 766  
Cooling Degree Days 0 0  
Month to date cooling degree days 16 0  
Year to date cooling degree days 2280 2225  
Growing Degree Days 1 (Base 50)    
Moisture  
Dew Point 52 °F    
Average Humidity 89    
Maximum Humidity 100    
Minimum Humidity 78    
Precipitation  
Precipitation 0.01 in 0.18 in 2.13 in (1990)
Month to date precipitation 4.07 4.19  
Year to date precipitation 67.65 53.32  
Sea Level Pressure  
Sea Level Pressure 30.02 in    
Wind  
Wind Speed 6 mph (West)    
Max Wind Speed 15 mph    
Max Gust Speed 24 mph    
Visibility 7 miles    
Events Fog , Rain    
T = Trace of Precipitation, MM = Missing Value Source: NWS Daily Summary

Daily Weather History Graph

Daily Weather History Graph

Search for Another Location

Airport:

Trip Planner

Search our weather history database for the weather conditions in past years. The results will help you decide how hot, cold, wet, or windy it might be!

Date:

Astronomy

Dec. 22, 2013 Rise Set
Actual Time 7:02 AM CST 5:03 PM CST
Civil Twilight 6:34 AM CST 5:30 PM CST
Nautical Twilight 6:04 AM CST 6:01 PM CST
Astronomical Twilight 5:34 AM CST 6:31 PM CST
Moon 10:00 PM CST (12/22) 10:13 AM CST (12/22)
Length of Visible Light 10h 56m
Length of Day
10h 01m
Waning Gibbous, 76% of the Moon is Illuminated
Dec 22
Waning Gibbous
Dec 25
Last Quarter
Jan 1
New
Jan 7
First Quarter
Jan 15
Full

Hourly Weather History & Observations

Time (CST) Temp. Windchill Dew Point Humidity Pressure Visibility Wind Dir Wind Speed Gust Speed Precip Events Conditions
12:53 AM 57.0 °F - 55.0 °F 93% 29.86 in 10.0 mi SW 4.6 mph - N/A   Clear
1:53 AM 55.9 °F - 55.0 °F 97% 29.87 in 10.0 mi SSW 4.6 mph - N/A   Partly Cloudy
2:53 AM 57.0 °F - 55.0 °F 93% 29.88 in 10.0 mi SW 4.6 mph - N/A   Overcast
3:01 AM 57.0 °F - 55.0 °F 93% 29.86 in 10.0 mi SSW 3.5 mph - N/A   Overcast
3:10 AM 57.0 °F - 55.0 °F 93% 29.86 in 10.0 mi WSW 3.5 mph - N/A   Overcast
3:19 AM 57.0 °F - 55.0 °F 93% 29.86 in 10.0 mi SW 3.5 mph - N/A   Overcast
3:53 AM 55.9 °F - 55.0 °F 97% 29.89 in 10.0 mi Variable 3.5 mph - N/A   Mostly Cloudy
4:12 AM 55.9 °F - 55.0 °F 97% 29.86 in 10.0 mi SSE 3.5 mph - N/A   Mostly Cloudy
4:53 AM 55.9 °F - 54.0 °F 93% 29.89 in 10.0 mi Calm Calm - N/A   Overcast
5:19 AM 55.9 °F - 55.0 °F 97% 29.88 in 10.0 mi South 3.5 mph - N/A   Overcast
5:53 AM 55.9 °F - 55.0 °F 97% 29.91 in 2.5 mi SSW 3.5 mph - N/A   Overcast
6:05 AM 55.9 °F - 55.0 °F 97% 29.90 in 1.5 mi SSW 4.6 mph - N/A   Overcast
6:27 AM 55.9 °F - 55.0 °F 97% 29.91 in 0.8 mi SSW 3.5 mph - N/A   Mist
6:44 AM 55.9 °F - 55.0 °F 97% 29.91 in 1.0 mi SW 3.5 mph - N/A   Mist
6:50 AM 55.4 °F - 55.4 °F 100% 29.91 in 0.8 mi Calm Calm - N/A   Mist
6:53 AM 55.9 °F - 55.0 °F 97% 29.92 in 0.8 mi Calm Calm - N/A   Mist
7:02 AM 55.9 °F - 55.0 °F 97% 29.90 in 1.0 mi Variable 3.5 mph - N/A   Mist
7:08 AM 55.9 °F - 55.0 °F 97% 29.90 in 0.8 mi Calm Calm - N/A   Mist
7:53 AM 55.9 °F - 55.0 °F 97% 29.96 in 0.5 mi SW 4.6 mph - N/A Fog Fog
8:03 AM 55.9 °F - 55.0 °F 97% 29.95 in 2.0 mi SSW 3.5 mph - N/A   Overcast
8:12 AM 55.9 °F - 55.0 °F 97% 29.94 in 5.0 mi Calm Calm - N/A   Overcast
8:42 AM 55.9 °F - 55.9 °F 100% 29.94 in 10.0 mi Calm Calm - N/A   Mostly Cloudy
8:50 AM 57.2 °F - 57.2 °F 100% 29.95 in 10.0 mi Variable 3.5 mph - N/A   Mostly Cloudy
8:53 AM 57.9 °F - 57.0 °F 97% 29.98 in 10.0 mi SSW 3.5 mph - N/A   Mostly Cloudy
9:53 AM 59.0 °F - 57.0 °F 93% 29.99 in 10.0 mi SSE 3.5 mph - N/A   Overcast
10:53 AM 61.0 °F - 57.0 °F 87% 30.01 in 10.0 mi West 4.6 mph - N/A   Overcast
11:53 AM 61.0 °F - 55.9 °F 83% 30.00 in 10.0 mi Calm Calm - N/A   Overcast
12:53 PM 61.0 °F - 54.0 °F 78% 30.01 in 10.0 mi WNW 4.6 mph - N/A   Overcast
1:53 PM 60.1 °F - 54.0 °F 80% 30.01 in 10.0 mi NW 5.8 mph - 0.00 in   Overcast
2:53 PM 57.9 °F - 53.1 °F 84% 30.04 in 10.0 mi West 4.6 mph - 0.00 in   Overcast
3:53 PM 57.9 °F - 53.1 °F 84% 30.05 in 10.0 mi WNW 3.5 mph - 0.00 in   Overcast
4:53 PM 57.0 °F - 52.0 °F 83% 30.07 in 10.0 mi WNW 5.8 mph - N/A   Overcast
5:53 PM 55.9 °F - 53.1 °F 90% 30.10 in 10.0 mi WNW 5.8 mph - 0.01 in   Overcast
6:10 PM 54.0 °F - 50.0 °F 86% 30.10 in 10.0 mi NNW 10.4 mph 20.7 mph N/A   Overcast
6:20 PM 54.0 °F - 50.0 °F 86% 30.10 in 10.0 mi NW 11.5 mph 18.4 mph N/A   Overcast
6:53 PM 53.1 °F - 48.9 °F 86% 30.14 in 10.0 mi WNW 10.4 mph 18.4 mph N/A   Overcast
7:53 PM 50.0 °F - 46.0 °F 86% 30.17 in 10.0 mi NW 12.7 mph 18.4 mph N/A   Overcast
8:17 PM 50.0 °F - 45.0 °F 83% 30.16 in 10.0 mi NW 11.5 mph 19.6 mph N/A   Overcast
8:53 PM 48.9 °F - 44.1 °F 83% 30.20 in 10.0 mi NW 11.5 mph 19.6 mph N/A   Overcast
9:53 PM 46.9 °F - 44.1 °F 90% 30.24 in 6.0 mi NNW 12.7 mph 19.6 mph 0.00 in Rain Light Rain
10:09 PM 44.1 °F 37.4 °F 41.0 °F 89% 30.23 in 5.0 mi NNW 13.8 mph 20.7 mph 0.00 in Rain Light Rain
10:32 PM 43.0 °F 36.4 °F 41.0 °F 93% 30.24 in 6.0 mi NNW 12.7 mph 20.7 mph 0.00 in Rain Light Rain
10:53 PM 42.1 °F 35.7 °F 39.9 °F 92% 30.28 in 7.0 mi NNW 11.5 mph 17.3 mph 0.00 in   Overcast
11:13 PM 42.1 °F 35.2 °F 39.9 °F 92% 30.25 in 6.0 mi NNW 12.7 mph - N/A   Overcast
11:27 PM 42.1 °F 35.7 °F 39.9 °F 92% 30.26 in 4.0 mi NW 11.5 mph 19.6 mph 0.00 in Rain Light Rain
11:35 PM 41.0 °F 33.9 °F 39.0 °F 93% 30.26 in 4.0 mi NW 12.7 mph 24.2 mph 0.00 in Rain Light Rain
11:53 PM 41.0 °F 34.7 °F 39.0 °F 93% 30.30 in 4.0 mi NNW 10.4 mph - 0.00 in Rain Light Rain